Location: Newark
(54.6833°N, 25.2833°E)
Time: 11:49:08
(UTC+00:00)

Altair - Visible Passes

Search period start: 26 September 2020 00:00
Search period end: 06 October 2020 00:00
Orbit: 1501 x 1682 km, 47.2° (Epoch: 25 September)

Date Brightness Start Highest point End Pass type
(mag) Time Alt. Az. Time Alt. Az. Time Alt. Az.
26 Sep 8.5 17:21:07 10° W 17:30:20 41° SSW 17:39:24 10° SE visible
26 Sep 9.2 19:26:56 10° W 19:32:57 18° SW 19:37:50 12° SSW visible
27 Sep 8.5 16:55:55 10° W 17:05:13 43° SSW 17:14:25 10° SE visible
27 Sep 9.3 19:01:29 10° W 19:07:57 19° SW 19:14:11 10° S visible
28 Sep 8.5 16:30:43 10° W 16:40:06 44° SSW 16:49:24 10° SE visible
28 Sep 9.2 18:36:05 10° W 18:42:57 21° SW 18:49:45 10° S visible
29 Sep 9.2 18:10:43 10° W 18:17:56 23° SW 18:25:04 10° S visible
30 Sep 9.2 17:45:23 10° W 17:52:54 24° SW 18:00:21 10° S visible
01 Oct 9.2 17:20:05 10° W 17:27:51 26° SW 17:35:35 10° S visible
02 Oct 9.2 16:54:47 10° W 17:02:48 28° SW 17:10:47 10° SSE visible
03 Oct 9.2 16:29:31 10° W 16:37:46 29° SW 16:45:57 10° SSE visible
05 Oct 9.9 17:47:21 10° WSW 17:49:48 11° WSW 17:52:15 10° SW visible
